Regional Weather Roundup
Issued by NWS Binghamton, NY

Home | Current Version | Previous Version | Text Only | Print | Product List | Glossary On
Versions: 1 2 3 4 5 6 7 8 9 10 11 12 13 14 15 16 17 18 19 20 21 22 23 24 25 26 27 28 29 30 31 32 33 34 35 36 37 38 39 40 41 42 43 44 45 46 47 48 49 50
324
ASUS41 KBGM 251210
RWRBGM

REGIONAL WEATHER ROUNDUP
NATIONAL WEATHER SERVICE BINGHAMTON NY
700 AM EST SAT FEB 25 2017

Note: "fair" indicates few or no clouds below 12,000 feet with no
significant weather and/or obstructions to visibility.

* = Station(s) that does not report precipitation, such as rain,
snow, etc, also no thunder or fog.

NYZ009-015>018-022>025-036-037-044>046-055>057-062-251300
...Central New York...

CITY           SKY/WX    TMP DP  RH WIND       PRES   REMARKS
Binghamton     CLOUDY    58  53  84 VRB6G16   29.60F
Cortland       FAIR      61  54  77 S10G20    29.57F
Dansville      CLOUDY    57  50  77 S3        29.52F
Elmira         CLOUDY    63  52  67 W12G17    29.55F
Seneca Falls   PTSUNNY   57  54  88 SE3       29.54F
Ithaca         PTCLDY    60  54  80 S14       29.56F
Hamilton       CLOUDY    59  52  77 S9        29.60S
Monticello     PTCLDY   N/A N/A N/A S8        29.72F
Norwich        CLOUDY    61  52  72 S9        29.61F
Oneonta        MOCLDY    57  52  82 S5        29.64S
Penn Yan       CLOUDY    59  50  72 S5        29.54F
Rome           CLOUDY    60  53  77 SE9       29.59S
Sidney         CLOUDY    59  55  88 SW5       29.62F
Syracuse       CLOUDY    62  53  72 SW8       29.54R
$$

PAZ038>040-043-044-047-048-072-251300
...Northeast Pennsylvania...

CITY           SKY/WX    TMP DP  RH WIND       PRES   REMARKS
Hazleton       CLOUDY    57  55  94 SE10G18   29.70F
Scranton       MOCLDY    62  56  80 S7        29.65F
$$
&&
KEY
WCI = Wind Chill Index
VSB = Visibility
HX  = Heat Index
$$




USA.gov is the U.S. government's official web portal to all federal, state and local government web resources and services.